Location: Amberg
(48.0613°N, 10.6820°E)
Time: 00:41:33
(UTC+00:00)

Cosmos 371 Rocket - Pass Details

Date: 18 November 2025
Orbit: 674 x 690 km, 74.0° (Epoch: 05 December)

Event Time Altitude Azimuth Distance (km) Brightness Sun altitude
Rises 17:03:21 0° 176° (S) 3,030 6.7 -14.4°
Reaches altitude 10° 17:05:48 10° 168° (SSE) 2,122 5.8 -14.8°
Maximum altitude 17:10:07 35° 103° (ESE) 1,110 3.9 -15.5°
Enters shadow 17:12:00 25° 61° (ENE) 1,368 4.2 -15.8°
